Погода в Озреке

Россия / Кабардино-Балкарская Республика     43°24′08″N   44°01′10″E
темп.,
°C
ветер,
м/с
пор.,
м/с
влажн.,
%
обл.,
%
осадки,
мм/ч
давл.,
гПа
погр.,
м
16 мая, вс
вс1600:00+18ююз2273100 0.1 101116
03:00+17ююз227345 0.1 101018
06:00+18ю117110 0.0 101039
09:00+23всв22595 0.0 1009481
12:00+28св34480 0.0 10071252
15:00+29св44440 0.0 10051511
18:00+26всв34595 0.0 1004100
21:00+20зсз226994 0.1 100513
17 мая, пн
пн1700:00+18з1174100 0.0 100511
03:00+16сз1173100 0.0 100411
06:00+17ююз11710 0.0 100534
09:00+25в22444 0.0 1004399
12:00+28ссв434243 0.0 1004963
15:00+29с333955 0.0 10031320
18:00+24зюз4660100 0.1 1005110
21:00+18юз4776100 1.2 1007105
18 мая, вт
вт1800:00+16юв118799 0.2 100612
03:00+16зсз3684100 0.2 1008144
06:00+17сз1687100 0.3 1009479
09:00+18зсз3581100 1.4 1010720
12:00+22ссз236165 0.9 10101310
15:00+23с235199 2.5 10101735
18:00+20зюз467596 0.3 1011197
21:00+16з228592 0.8 101321
19 мая, ср
ср1900:00+15ююз22845 0.0 101230
03:00+14ююз22873 0.0 101126
06:00+15ююз22815 0.0 101186
09:00+19сз227092 0.1 1012450
12:00+20ссз556440 0.8 10141001
15:00+20с4569100 0.8 1015840
18:00+18ссз1274100 0.0 101669
21:00+17сз227669 0.0 101828
20 мая, чт
чт2000:00+16ссз0181100 0.0 101811
03:00+15св008280 0.1 101911
06:00+15всв258099 0.1 1021215
09:00+19вюв34550 0.1 1019890
12:00+23в34480 0.0 10171479
15:00+25в554716 0.0 10161716
18:00+22в47569 0.0 1017307
21:00+17ююв33730 0.0 101731